Location: Ferma
(41.9500°N, 44.5167°E)
Time: 19:42:15
(UTC+00:00)

FENGYUN 1C DEB - Pass Details

Date: 17 August 2022
Orbit: 606 x 930 km, 99.7° (Epoch: 01 October)

Event Time Altitude Azimuth Distance (km) Brightness Sun altitude
Exits shadow 16:18:37 - 101° (E) 2,851 ? -4.1°
Reaches altitude 10° 16:20:38 10° 84° (E) 2,394 ? -4.5°
Maximum altitude 16:23:15 14° 54° (NE) 2,179 ? -4.9°
Drops below altitude 10° 16:25:57 10° 25° (NNE) 2,499 ? -5.4°
Sets 16:29:36 0° 2° (N) 3,500 ? -6.0°
